{"data":{"norad_id":56291,"epoch":"2026-09-20T05:34:53.815584Z","epoch_age_seconds":131890,"freshness":"FRESH","line1":"1 56291U 23056F   26263.23256731 -.00000988  00000+0 -26385-4 0  9991","line2":"2 56291  43.0017 190.1681 0001284 267.0131  93.0573 15.27582793189791","mean_motion":15.27582793,"eccentricity":0.0001284,"inclination_deg":43.0017,"raan_deg":190.1681,"arg_perigee_deg":267.0131,"mean_anomaly_deg":93.0573,"bstar":-2.6385e-5,"rev_number":18979,"period_min":94.266576358326,"perigee_km":482.15975758473,"apogee_km":483.92170802651,"semimajor_km":6861.1777328056,"source":"CELESTRAK","updated_at":"2026-09-21T09:00:33.392175Z"}}